Weather History for Port Hope, MI

Change the Weather History Date:

Friday, November 30, 2012

  Actual Average Record
Temperature  
Mean Temperature 35 °F -  
Max Temperature 36 °F 38 °F 55 °F (2010)
Min Temperature 34 °F 29 °F 19 °F (2007)
Degree Days  
Heating Degree Days 30    
Moisture  
Dew Point 29 °F    
Average Humidity 81    
Maximum Humidity 85    
Minimum Humidity 73    
Precipitation  
Precipitation 0.00 in - - ()
Sea Level Pressure  
Sea Level Pressure 30.30 in    
Wind  
Wind Speed 18 mph (East)    
Max Wind Speed 22 mph    
Max Gust Speed -    
Averages and records for this station are not official NWS values.
T = Trace of Precipitation, MM = Missing Value Source: NWS Daily Summary

Daily Weather History Graph

Daily Weather History Graph

Search for Another Location

Airport:

Trip Planner

Search our weather history database for the weather conditions in past years. The results will help you decide how hot, cold, wet, or windy it might be!

Date:

Astronomy

Nov. 30, 2012 Rise Set
Actual Time 7:45 AM EST 4:54 PM EST
Civil Twilight 7:12 AM EST 5:26 PM EST
Nautical Twilight 6:37 AM EST 6:02 PM EST
Astronomical Twilight 6:02 AM EST 6:37 PM EST
Moon 6:48 PM EST (11/30) 9:16 AM EST (11/30)
Length of Visible Light 10h 13m
Length of Day
9h 09m
Waning Gibbous, 96% of the Moon is Illuminated
Nov 30
Waning Gibbous
Dec 6
Last Quarter
Dec 13
New
Dec 20
First Quarter
Dec 28
Full

Hourly Weather History & Observations

Time (EST) Temp. Windchill Dew Point Humidity Pressure Visibility Wind Dir Wind Speed Gust Speed Precip Events Conditions
12:51 AM 35.1 °F 24.8 °F 30.0 °F 82% 30.28 in - ENE 17.3 mph - N/A   Unknown
1:51 AM 34.0 °F 22.7 °F 28.9 °F 82% 30.28 in - ENE 19.6 mph - N/A   Unknown
2:51 AM 34.0 °F 22.7 °F 28.9 °F 82% 30.30 in - ENE 19.6 mph - N/A   Unknown
3:51 AM 34.0 °F 22.7 °F 27.0 °F 75% 30.30 in - ENE 19.6 mph - N/A   Unknown
4:51 AM 34.0 °F 22.1 °F 27.0 °F 75% 30.30 in - ENE 21.9 mph - N/A   Unknown
5:51 AM 34.0 °F 22.4 °F 26.1 °F 73% 30.29 in - ENE 20.7 mph - N/A   Unknown
6:51 AM 34.0 °F 22.1 °F 27.0 °F 75% 30.30 in - ENE 21.9 mph - N/A   Unknown
7:51 AM 34.0 °F 22.4 °F 27.0 °F 75% 30.30 in - East 20.7 mph - N/A   Unknown
8:51 AM 34.0 °F 22.1 °F 28.0 °F 79% 30.29 in - East 21.9 mph - N/A   Unknown
9:51 AM 35.1 °F 23.8 °F 28.9 °F 78% 30.31 in - East 20.7 mph - N/A   Unknown
10:51 AM 35.1 °F 24.5 °F 28.9 °F 78% 30.30 in - ESE 18.4 mph - N/A   Unknown
11:51 AM 36.0 °F 27.1 °F 30.9 °F 82% 30.30 in - ESE 13.8 mph - N/A   Unknown
12:51 PM 35.1 °F 24.5 °F 30.9 °F 85% 30.27 in - East 18.4 mph - N/A   Unknown
1:51 PM 35.1 °F 24.8 °F 30.9 °F 85% 30.27 in - East 17.3 mph - N/A   Unknown
2:51 PM 35.1 °F 25.2 °F 30.0 °F 82% 30.28 in - East 16.1 mph - N/A   Unknown
3:51 PM 34.0 °F 23.4 °F 30.0 °F 85% 30.28 in - East 17.3 mph - N/A   Unknown
4:51 PM 34.0 °F 24.2 °F 30.0 °F 85% 30.30 in - East 15.0 mph - N/A   Unknown
5:51 PM 34.0 °F 23.4 °F 30.0 °F 85% 30.30 in - East 17.3 mph - N/A   Unknown
6:51 PM 34.0 °F 24.6 °F 30.0 °F 85% 30.32 in - ESE 13.8 mph - N/A   Unknown
7:51 PM 34.0 °F 23.8 °F 30.0 °F 85% 30.31 in - ESE 16.1 mph - N/A   Unknown
8:51 PM 35.1 °F 26.4 °F 30.0 °F 82% 30.35 in - East 12.7 mph - N/A   Unknown
9:51 PM 34.0 °F 23.8 °F 30.0 °F 85% 30.32 in - ESE 16.1 mph - N/A   Unknown
10:51 PM 34.0 °F 24.2 °F 30.0 °F 85% 30.28 in - ESE 15.0 mph - N/A   Unknown
11:51 PM 34.0 °F 25.5 °F 28.9 °F 82% 30.31 in - SE 11.5 mph - N/A   Unknown